Regional Weather Roundup
Issued by NWS

Home | Current Version | Previous Version | Graphics & Text | Print | Product List | Glossary Off
Versions: 1 2 3 4 5 6 7 8 9 10 11 12 13 14 15 16 17 18 19 20 21 22 23 24 25 26 27 28 29 30 31 32 33 34 35 36 37 38 39 40 41 42 43 44 45 46 47 48 49 50

059
ASUS43 KLSX 211207
RWRMO

WEATHER SUMMARY FOR MISSOURI
NATIONAL WEATHER SERVICE SPRINGFIELD MO
700 AM CDT FRI JUL 21 2017

NOTE: "FAIR" INDICATES FEW OR NO CLOUDS BELOW 12,000 FEET WITH NO
       SIGNIFICANT WEATHER AND/OR OBSTRUCTIONS TO VISIBILITY.
       CURRENT SKY AND/OR WEATHER CONDITIONS ARE NOT AVAILABLE FOR
       CHILLICOTHE AND FARMINGTON.

MOZ001>031-035>038-043-044-053-054-211300-
...NORTHERN AND WESTERN MISSOURI...

CITY           SKY/WX    TMP DP  RH WIND       PRES   REMARKS
KANSAS CTY INT PTCLDY    79  72  79 S9        29.95S
6HR MIN TEMP:  78; 6HR MAX TEMP:  81;

KANSAS C DTWN  CLEAR     84  72  67 S9        29.94R
6HR MIN TEMP:  83; 6HR MAX TEMP:  86;

LEE`S SUMMIT   CLEAR     80  73  79 SW12      29.97R
6HR MIN TEMP:  80; 6HR MAX TEMP:  83;

ST JOSEPH      CLEAR     79  75  87 S8        29.92S
6HR MIN TEMP:  77; 6HR MAX TEMP:  80;

CHILLICOTHE      N/A     78  75  90 S3        29.95F
6HR MIN TEMP:  76; 6HR MAX TEMP:  83;

KIRKSVILLE     PTCLDY    76  74  93 S6        29.97S
6HR MIN TEMP:  76; 6HR MAX TEMP:  80;


$$
MOZ066>068-077>081-088>096-101>105-211300-
...SOUTHWEST MISSOURI...

CITY           SKY/WX    TMP DP  RH WIND       PRES   REMARKS
SPRINGFIELD    CLEAR     74  72  93 S5        30.04S
6HR MIN TEMP:  72; 6HR MAX TEMP:  78;

JOPLIN         CLEAR     79  74  84 S7        30.02R
6HR MIN TEMP:  77; 6HR MAX TEMP:  81;

BRANSON        CLEAR     77  72  83 SW3       30.07R

$$
MOZ032>034-039>042-045>050-055>058-069>072-211300-
...CENTRAL MISSOURI...

CITY           SKY/WX    TMP DP  RH WIND       PRES   REMARKS
COLUMBIA       CLEAR     75  73  93 S5        30.01R
6HR MIN TEMP:  74; 6HR MAX TEMP:  81;

JEFFERSON CITY CLEAR     78  74  87 SE5       30.00R
6HR MIN TEMP:  75; 6HR MAX TEMP:  80;

ROLLA          CLEAR     75  72  90 SW7       30.04R
6HR MIN TEMP:  73; 6HR MAX TEMP:  77;

WHITEMAN AFB   CLEAR     76  76 100 S7        29.98R
WARRENSBURG    CLEAR     73  70  88 S6        29.98R
OSAGE BEACH    CLEAR     73  70  90 CALM      30.03R

$$
MOZ051-052-059>065-211300-
...EAST CENTRAL MISSOURI...

CITY           SKY/WX    TMP DP  RH WIND       PRES   REMARKS
ST LOUIS INTL  MOSUNNY   83  72  69 W8        30.00R
6HR MIN TEMP:  82; 6HR MAX TEMP:  90;

SPIRIT OF STL  MOSUNNY   79  74  84 NW3       29.99R
6HR MIN TEMP:  77; 6HR MAX TEMP:  80;

ST CHARLES     SUNNY     77  75  93 MISG      29.98S
6HR MIN TEMP:  74; 6HR MAX TEMP:  80;


$$
MOZ072>076-082>087-097>100-106>115-211300-
...SOUTH CENTRAL AND SOUTHEAST MISSOURI...

CITY           SKY/WX    TMP DP  RH WIND       PRES   REMARKS
CAPE GIRARDEAU SUNNY     76  74  93 SE5       30.01R FOG
6HR MIN TEMP:  74; 6HR MAX TEMP:  80;

FARMINGTON     MOSUNNY   77  73  88 CALM      30.05R
6HR MIN TEMP:  74; 6HR MAX TEMP:  81;

POPLAR BLUFF   SUNNY     78  78 100 CALM      30.02R FOG
6HR MIN TEMP:  77; 6HR MAX TEMP:  81;

WEST PLAINS    CLEAR     75  72  90 CALM      30.07R FOG
6HR MIN TEMP:  74; 6HR MAX TEMP:  80;


$$




USA.gov is the U.S. government's official web portal to all federal, state and local government web resources and services.